{"data":{"norad_id":60461,"intl_designator":"2024-148D","name":"YAOGAN-43 01D","alt_names":[],"object_type":"PAYLOAD","status":"ACTIVE","operator":null,"country":"PRC","launch_date":"2024-08-16","launch_site_code":"XICLF","launch_vehicle":null,"mission":null,"orbit_class":"UNKNOWN","rcs_meters":null,"size_class":null,"mass_kg":null,"dimensions":null,"purposes":[],"wikipedia_slug":null,"has_3d_model":false,"image_url":null,"decayed_at":null,"tle_current":{"epoch":"2026-05-24T19:54:19.800576Z","epoch_age_seconds":86300,"freshness":"FRESH","line1":"1 60461U 24148D   26144.82939584  .00006382  00000+0  21870-3 0  9990","line2":"2 60461  35.0044 296.8790 0003084 328.3435  31.7096 15.29504113 98700","mean_motion":15.29504113,"eccentricity":0.0003084,"inclination_deg":35.0044,"raan_deg":296.879,"arg_perigee_deg":328.3435,"mean_anomaly_deg":31.7096,"bstar":0.0002187,"rev_number":9870,"period_min":94.1481613394,"perigee_km":475.17943550208,"apogee_km":479.40786512719,"semimajor_km":6855.4306503146,"source":"CELESTRAK","updated_at":"2026-05-25T13:38:02.085448Z"}}}